{"data":{"norad_id":58639,"epoch":"2026-05-24T23:22:28.905024Z","epoch_age_seconds":74307,"freshness":"FRESH","line1":"1 58639U 23203X   26144.97394566 -.00000319  00000+0 -20517-5 0  9991","line2":"2 58639  43.0038 356.6617 0001195 259.5003 100.5714 15.27575172135228","mean_motion":15.27575172,"eccentricity":0.0001195,"inclination_deg":43.0038,"raan_deg":356.6617,"arg_perigee_deg":259.5003,"mean_anomaly_deg":100.5714,"bstar":-2.0517e-6,"rev_number":13522,"period_min":94.2670466498,"perigee_km":482.24363938053,"apogee_km":483.88346631266,"semimajor_km":6861.2005528466,"source":"CELESTRAK","updated_at":"2026-05-25T13:38:18.709506Z"}}